Temp
51 51 51 51 51 49 41 29 21 39 46 35 32 30 34 40 38 42 40 39 37 34 35 33 35 36 37 43 42 37 41 37 30 36 48 51 49 43 43 33 30 31 32 32
51 51 51 51 51 48 35 26 27 42 43 28 27 33 35 37 36 38 37 36 37 38 34 31 35 36 41 42 40 37 39 33 28 32 38 41 38 39 39 39 36 29 27 31
51 51 51 51 50 48 35 26 22 32 36 32 28 28 29 31 38 36 40 38 36 34 31 36 34 34 40 42 41 44 42 36 31 26 31 33 30 35 36 33 28 31 32 35
51 51 50 50 50 48 35 24 19 29 23 27 31 31 30 29 30 36 38 34 34 32 29 31 31 35 36 40 42 41 38 28 32 32 32 33 32 33 34 32 34 28 32 35
50 50 50 50 50 47 31 23 24 29 26 30 29 31 26 28 30 32 30 31 33 35 31 32 29 34 35 33 38 37 38 27 31 23 31 31 31 35 36 35 35 34 33 33
50 50 50 50 50 45 28 29 32 28 24 26 27 26 28 29 31 33 36 34 30 29 31 35 36 36 38 38 35 34 33 31 27 24 27 27 25 31 35 36 37 35 29 36
50 50 50 50 50 44 34 31 30 23 18 22 26 29 30 29 31 29 33 33 29 34 40 39 38 37 37 38 37 39 33 32 30 27 29 19 33 41 41 38 40 38 39 40
50 50 50 49 50 47 35 32 30 22 13 27 29 28 29 30 31 29 30 33 36 37 34 23 20 25 31 34 38 39 39 34 28 25 25 28 34 39 34 33 34 42 39 42
49 49 49 49 49 49 38 35 34 28 19 20 32 28 29 22 21 24 30 36 38 35 25 17 13 17 24 27 31 40 38 37 30 26 18 14 30 40 43 41 26 41 42 42
49 49 49 49 49 49 40 39 38 33 26 28 31 24 24 30 26 19 27 32 32 33 25 23 15 20 31 25 26 27 29 30 27 26 23 26 36 42 43 26 29 41 42 42
49 49 49 49 49 49 40 38 39 36 30 31 34 35 30 28 27 20 27 24 24 19 22 23 21 19 27 29 31 30 29 27 24 27 24 20 40 39 33 35 38 40 40 40
48 48 48 48 48 49 46 37 39 39 33 31 36 37 39 36 35 29 28 25 23 26 24 23 26 25 24 29 25 33 26 29 25 28 27 35 37 38 40 40 39 39 38 39
47 48 48 48 48 49 46 38 37 37 33 32 32 31 39 41 39 41 28 31 34 31 32 27 26 24 29 25 27 31 35 35 28 30 35 34 37 38 39 38 39 38 39 38
47 47 47 47 47 47 47 38 40 37 33 26 29 40 35 43 42 39 38 36 37 34 32 29 27 25 32 28 32 33 34 35 32 29 34 35 37 36 38 40 39 36 34 33
47 47 47 47 47 47 44 40 40 40 33 25 23 35 39 40 39 37 37 36 34 31 28 27 25 30 30 32 31 30 32 31 30 28 36 35 36 38 39 39 38 38 35 34
46 46 47 47 47 47 40 31 38 42 39 30 24 36 37 41 40 38 35 33 34 32 29 29 31 37 33 29 28 35 36 36 37 34 37 36 38 39 40 38 38 37 35 34
46 45 45 45 44 41 34 32 39 43 40 31 26 27 36 37 38 34 33 35 33 32 31 30 32 32 34 28 25 35 37 38 38 38 37 33 37 35 39 38 36 36 33 32
46 45 44 45 44 41 37 40 42 43 36 33 27 27 31 36 32 31 34 31 32 32 32 32 30 31 30 25 32 34 38 37 36 38 38 38 37 38 35 34 32 30 29 30
45 44 45 42 39 35 36 45 44 41 37 28 27 24 23 34 31 31 31 32 27 32 29 30 30 26 23 31 33 35 36 36 36 37 36 36 34 34 33 32 31 29 29 30
45 41 36 29 36 46 44 38 33 32 32 28 25 27 25 29 29 28 29 29 27 24 27 30 24 24 32 35 37 35 36 36 36 33 30 33 33 33 33 32 33 33 32 31
37 32 30 36 43 36 30 24 23 24 22 26 27 27 25 30 22 25 28 25 26 22 25 24 22 22 28 31 32 35 36 36 36 38 37 37 36 34 33 32 32 31 31 30
38 38 38 34 31 25 23 20 24 24 23 26 25 27 26 29 32 23 27 25 24 22 26 23 18 24 30 30 30 31 33 35 36 37 36 35 34 34 33 31 30 29 28 28
35 33 30 26 25 12 16 12 20 16 23 29 29 28 31 31 33 28 27 18 19 24 23 18 22 29 29 29 30 30 31 32 33 31 32 31 30 30 29 27 24 25 24 27
29 27 15 16 10 20 19 21 21 25 31 31 31 29 28 30 27 27 20 22 28 22 21 20 24 28 28 29 30 31 29 30 29 28 27 24 23 19 19 20 20 23 22 25
27 28 11 20 25 25 26 29 30 29 31 31 31 31 30 28 16 26 25 19 17 22 17 17 25 29 29 28 29 28 24 24 21 18 19 18 19 19 17 15 18 16 14 15
31 29 26 26 24 19 19 19 23 33 32 32 32 29 27 24 26 23 22 19 15 17 16 24 25 26 31 30 29 28 27 24 17 18 18 18 17 17 14 14 18 10 10 11
27 23 25 26 23 25 23 24 29 35 31 29 28 22 25 26 22 22 24 17 18 21 28 29 26 26 29 29 28 27 26 22 22 22 23 22 22 22 23 23 23 21 18 20
MSLP
1014.31 1014.43 1014.61 1014.78 1015.08 1015.43 1015.73 1017.10 1018.23 1017.61 1017.03 1017.80 1017.81 1018.00 1017.84 1017.58 1016.56 1016.02 1016.05 1015.96 1015.82 1015.80 1015.76 1015.46 1015.32 1014.83 1014.77 1014.76 1014.45 1014.65 1014.88 1014.39 1013.46 1012.08 1010.97 1010.37 1010.27 1010.42 1011.08 1011.68 1011.95 1011.37 1010.29 1008.13
1014.34 1014.58 1014.77 1014.82 1015.25 1015.53 1016.36 1018.11 1018.83 1017.89 1017.60 1018.25 1018.50 1018.42 1018.33 1017.75 1017.45 1016.96 1016.65 1016.49 1016.52 1016.28 1016.26 1016.39 1015.90 1015.36 1015.27 1015.03 1015.11 1015.54 1015.32 1015.23 1014.80 1012.65 1011.92 1012.07 1011.90 1012.15 1012.17 1012.30 1012.25 1011.88 1010.66 1007.96
1014.46 1014.65 1014.95 1015.19 1015.54 1015.94 1016.73 1018.69 1019.73 1019.27 1018.81 1018.98 1018.78 1019.00 1018.65 1018.27 1017.75 1017.36 1017.01 1016.91 1017.17 1017.17 1017.09 1016.96 1016.48 1016.02 1015.57 1015.55 1015.62 1015.89 1015.80 1015.96 1016.44 1016.05 1015.21 1015.12 1014.50 1013.99 1013.80 1013.36 1013.08 1011.78 1010.54 1008.90
1014.46 1014.84 1015.16 1015.48 1015.88 1016.32 1017.18 1019.18 1020.04 1019.55 1019.78 1019.70 1019.55 1019.51 1019.14 1018.65 1018.27 1017.85 1017.55 1017.30 1017.29 1017.68 1017.58 1017.18 1016.65 1016.39 1016.12 1015.88 1015.86 1016.06 1016.43 1016.33 1016.54 1016.09 1015.75 1015.40 1014.76 1014.21 1013.93 1013.88 1012.87 1012.36 1011.16 1009.75
1014.63 1014.98 1015.37 1015.77 1016.12 1016.56 1017.81 1019.35 1019.91 1020.13 1020.12 1019.80 1019.87 1019.94 1019.34 1018.92 1018.72 1018.45 1018.07 1017.68 1017.82 1017.96 1017.89 1017.73 1017.47 1017.27 1016.84 1016.52 1016.35 1016.29 1016.63 1016.44 1016.42 1016.07 1015.42 1015.26 1013.97 1013.01 1012.35 1013.05 1012.32 1011.38 1010.86 1010.12
1014.87 1015.25 1015.59 1015.98 1016.27 1016.66 1018.10 1019.36 1019.45 1019.53 1020.36 1020.22 1020.27 1019.72 1019.20 1019.05 1018.96 1018.70 1018.30 1018.08 1018.22 1018.09 1018.24 1018.24 1017.99 1017.87 1017.06 1016.49 1016.49 1016.44 1016.41 1016.45 1016.22 1015.41 1014.50 1014.18 1013.62 1011.49 1011.09 1011.12 1010.89 1010.75 1009.92 1008.37
1014.90 1015.31 1015.64 1015.90 1016.17 1016.78 1017.89 1018.81 1019.30 1020.18 1020.65 1020.20 1019.63 1019.28 1019.33 1019.28 1019.15 1019.21 1018.82 1018.89 1018.90 1018.65 1018.29 1018.00 1017.30 1016.57 1016.12 1015.84 1015.21 1015.59 1015.32 1015.57 1015.52 1014.88 1014.66 1013.48 1011.04 1010.09 1009.89 1010.13 1009.67 1009.45 1009.03 1008.77
1014.77 1015.17 1015.46 1015.82 1016.20 1016.82 1017.71 1018.45 1019.15 1020.13 1020.64 1019.80 1019.34 1019.44 1019.53 1019.47 1019.46 1019.54 1019.20 1019.13 1018.91 1018.96 1019.19 1018.78 1017.53 1016.38 1015.09 1013.87 1013.65 1013.77 1014.03 1014.48 1014.57 1014.45 1013.83 1012.53 1010.77 1009.82 1009.80 1009.81 1008.82 1008.49 1008.35 1008.02
1014.63 1015.03 1015.39 1015.75 1016.14 1016.61 1017.30 1018.01 1018.31 1019.32 1020.02 1019.30 1018.98 1019.21 1019.29 1019.40 1019.43 1019.47 1018.99 1018.78 1018.25 1018.79 1019.19 1019.04 1018.20 1016.82 1014.81 1013.60 1012.60 1011.98 1013.05 1013.27 1014.00 1013.82 1013.17 1012.12 1010.42 1009.43 1009.09 1009.30 1008.70 1007.77 1007.52 1007.90
1014.45 1014.87 1015.30 1015.64 1016.01 1016.33 1017.12 1017.40 1017.82 1018.70 1019.29 1018.69 1018.49 1018.62 1018.75 1018.96 1019.31 1019.46 1019.30 1018.81 1018.43 1018.37 1018.99 1018.65 1017.77 1016.20 1014.74 1013.71 1012.66 1012.20 1011.97 1012.11 1012.03 1012.52 1012.27 1011.11 1009.66 1009.04 1009.22 1009.39 1008.72 1007.61 1007.55 1007.97
1014.16 1014.63 1015.00 1015.30 1015.59 1015.94 1016.73 1017.13 1017.43 1018.24 1018.20 1017.83 1017.63 1017.65 1018.02 1018.28 1018.60 1019.15 1019.30 1019.22 1018.57 1018.69 1018.56 1017.89 1017.05 1015.55 1013.91 1013.01 1012.16 1011.52 1011.17 1011.36 1011.78 1011.90 1011.86 1010.87 1008.78 1009.12 1009.11 1008.33 1007.98 1007.82 1007.92 1008.09
1013.80 1014.21 1014.55 1014.88 1015.21 1015.61 1016.11 1017.05 1017.34 1017.55 1018.02 1017.13 1016.92 1016.94 1017.00 1017.49 1017.58 1018.21 1018.39 1018.39 1018.19 1018.09 1018.09 1017.55 1017.07 1015.36 1013.37 1012.09 1011.23 1010.91 1010.77 1010.33 1010.68 1010.62 1009.62 1008.78 1008.60 1008.23 1007.89 1008.05 1008.41 1008.22 1008.23 1008.22
1013.42 1013.84 1014.21 1014.49 1014.77 1015.07 1015.51 1016.26 1016.80 1017.57 1017.49 1016.63 1016.46 1015.76 1015.28 1015.69 1016.01 1016.53 1017.37 1016.97 1017.65 1017.52 1017.52 1017.78 1017.13 1015.71 1013.52 1011.43 1009.95 1009.66 1009.43 1009.65 1010.14 1010.01 1008.89 1008.71 1008.45 1007.76 1007.82 1008.09 1008.37 1008.32 1008.33 1008.48
1013.06 1013.55 1013.86 1014.10 1014.41 1014.72 1015.06 1015.78 1016.06 1016.68 1016.63 1015.81 1013.16 1013.44 1013.63 1013.32 1014.32 1014.90 1015.09 1015.52 1016.20 1016.77 1017.30 1017.16 1016.28 1014.81 1013.44 1011.16 1009.60 1008.67 1008.30 1008.80 1008.95 1009.08 1008.58 1008.58 1008.14 1007.94 1008.13 1008.18 1008.11 1008.35 1008.67 1008.99
1012.93 1013.28 1013.58 1013.83 1014.07 1014.26 1014.50 1014.73 1014.83 1015.29 1015.99 1014.18 1013.06 1012.44 1012.18 1012.01 1012.41 1013.03 1013.77 1014.60 1015.49 1016.11 1016.25 1015.42 1014.69 1013.96 1013.66 1011.40 1009.85 1008.42 1007.59 1007.55 1007.90 1007.68 1007.38 1007.65 1007.71 1007.68 1007.85 1008.09 1008.01 1008.20 1008.68 1009.47
1012.75 1013.00 1013.05 1013.13 1013.19 1013.35 1013.76 1013.17 1013.10 1013.20 1013.89 1014.09 1012.86 1010.84 1010.09 1010.32 1010.52 1011.16 1011.87 1013.09 1013.84 1014.49 1014.40 1014.24 1013.25 1011.95 1012.30 1009.85 1008.98 1007.46 1006.98 1006.61 1006.20 1006.58 1006.70 1007.15 1007.45 1007.70 1007.85 1008.00 1008.17 1008.36 1008.74 1009.26
1012.40 1012.53 1012.53 1012.40 1012.09 1011.82 1012.32 1011.92 1011.42 1011.42 1012.89 1013.24 1012.39 1010.78 1008.98 1008.89 1008.70 1009.23 1009.59 1009.83 1011.36 1012.45 1013.08 1012.38 1011.77 1011.05 1010.10 1009.13 1008.15 1006.58 1006.42 1006.20 1006.04 1006.21 1006.65 1007.29 1007.54 1007.75 1007.80 1008.19 1008.43 1008.81 1009.50 1009.85
1012.00 1012.03 1011.86 1011.36 1011.19 1011.73 1011.52 1010.89 1010.84 1011.09 1012.11 1012.60 1011.81 1010.07 1009.08 1008.46 1008.03 1008.05 1008.23 1009.00 1010.36 1010.92 1011.07 1011.08 1010.82 1010.18 1009.37 1008.38 1007.14 1006.70 1006.09 1006.13 1006.24 1006.25 1006.46 1006.67 1007.00 1007.45 1007.90 1008.39 1009.09 1009.81 1010.47 1010.50
1011.55 1011.51 1011.15 1010.93 1011.04 1011.24 1010.76 1010.45 1010.70 1010.99 1011.76 1011.74 1011.43 1010.57 1009.34 1008.53 1008.17 1008.12 1008.29 1008.68 1009.64 1009.72 1009.90 1009.59 1009.45 1009.23 1008.49 1007.26 1006.81 1006.17 1005.66 1005.87 1006.03 1006.22 1006.34 1006.58 1007.04 1007.52 1008.08 1008.69 1009.42 1009.96 1010.82 1011.01
1010.95 1010.89 1010.95 1010.79 1010.44 1010.39 1010.70 1011.09 1011.46 1011.68 1011.50 1011.39 1011.03 1010.57 1009.80 1009.34 1008.70 1008.42 1008.42 1008.57 1009.01 1008.91 1008.90 1008.68 1008.86 1008.31 1007.35 1006.18 1005.60 1005.50 1005.62 1005.74 1006.12 1006.40 1006.77 1006.95 1007.20 1007.46 1007.89 1008.63 1009.15 1009.72 1010.52 1011.13
1010.85 1010.88 1010.86 1010.38 1010.06 1010.31 1010.80 1011.42 1011.76 1011.50 1011.41 1010.80 1010.34 1010.25 1009.86 1009.36 1009.38 1009.04 1009.00 1008.89 1008.98 1009.28 1009.37 1009.49 1009.21 1008.57 1006.98 1006.45 1006.20 1005.78 1005.64 1005.78 1006.11 1006.08 1006.24 1006.26 1006.89 1007.90 1008.28 1008.82 1009.45 1010.05 1010.64 1011.38
1010.91 1010.83 1010.71 1010.70 1010.66 1011.17 1011.44 1011.46 1011.23 1011.02 1010.49 1010.13 1009.84 1009.75 1009.74 1009.54 1009.41 1009.62 1009.53 1009.41 1009.62 1009.67 1009.60 1009.50 1009.01 1007.35 1006.68 1006.20 1005.93 1005.72 1005.58 1005.64 1006.05 1006.31 1006.43 1007.04 1007.77 1007.83 1008.69 1009.40 1010.13 1010.76 1011.31 1011.89
1010.74 1010.92 1011.15 1011.29 1011.56 1011.84 1011.70 1011.44 1010.73 1010.45 1009.93 1009.70 1009.43 1009.46 1009.43 1009.46 1009.42 1009.55 1009.57 1009.66 1009.76 1009.50 1009.72 1009.57 1008.18 1007.40 1007.20 1007.20 1006.79 1006.53 1005.78 1006.27 1006.92 1007.28 1007.74 1008.13 1008.66 1008.83 1009.45 1010.46 1011.04 1011.55 1012.06 1012.53
1011.06 1011.25 1011.41 1011.81 1011.69 1011.60 1011.23 1010.81 1010.47 1009.86 1009.40 1009.21 1009.04 1009.10 1009.50 1009.34 1009.61 1009.65 1009.77 1009.74 1009.76 1009.86 1009.78 1008.84 1008.23 1007.75 1007.83 1007.56 1007.11 1006.99 1007.74 1008.10 1008.53 1008.97 1009.17 1009.39 1009.75 1010.58 1010.90 1011.36 1011.74 1012.23 1013.01 1013.49
1011.07 1011.26 1011.19 1011.03 1010.67 1010.63 1010.44 1010.30 1010.05 1009.50 1008.97 1008.71 1008.43 1008.37 1008.68 1009.02 1009.44 1009.27 1009.61 1009.80 1009.40 1009.09 1008.54 1008.34 1007.99 1008.17 1007.83 1007.86 1008.00 1008.38 1008.88 1009.34 1009.77 1010.16 1010.31 1010.62 1010.96 1011.44 1012.23 1012.57 1012.96 1013.62 1014.03 1014.35
1010.43 1010.42 1010.33 1010.39 1010.37 1010.39 1010.14 1009.83 1009.19 1008.55 1008.09 1007.79 1007.61 1007.58 1007.87 1008.19 1008.44 1009.07 1009.28 1009.34 1008.95 1008.46 1008.06 1007.89 1007.76 1007.73 1007.89 1008.13 1008.39 1008.82 1009.18 1009.84 1010.48 1010.77 1011.00 1011.41 1011.93 1012.37 1012.93 1013.33 1013.74 1014.62 1014.95 1015.03
1009.98 1009.83 1009.67 1009.83 1009.99 1009.83 1009.45 1008.86 1008.45 1007.81 1007.41 1006.87 1007.15 1007.45 1007.50 1007.95 1008.42 1008.90 1008.76 1008.79 1008.49 1008.06 1007.93 1007.85 1007.77 1007.90 1008.19 1008.38 1008.73 1009.23 1009.55 1010.41 1010.81 1011.16 1011.57 1012.08 1012.49 1012.77 1013.10 1013.57 1014.41 1014.77 1015.23 1015.44
Wind_Speed
10 8 7 7 8 8 9 4 4 4 3 3 1 2 4 1 3 1 2 1 2 1 2 2 3 3 2 5 2 3 4 1 6 7 15 12 14 5 1 7 9 5 5 12
10 9 7 6 6 6 4 4 2 3 2 3 2 0 1 1 2 2 2 3 3 1 2 3 4 2 0 2 3 2 2 3 7 16 6 8 6 8 12 11 2 9 11 9
10 10 8 7 7 7 6 4 4 3 3 1 4 3 4 3 3 1 2 3 1 0 2 3 5 3 4 2 3 6 3 3 6 9 10 1 6 14 10 3 6 13 14 22
10 9 9 8 7 7 6 3 3 1 4 3 4 2 1 2 3 2 4 3 6 4 4 5 9 6 3 3 3 4 1 5 7 10 10 7 9 12 12 11 11 7 13 16
9 9 8 9 9 8 5 4 4 1 2 3 8 7 4 6 3 2 3 7 2 4 10 8 4 8 2 2 1 5 4 5 6 6 12 13 8 15 11 16 16 10 6 14
10 9 10 10 11 5 3 1 2 4 2 4 8 6 4 5 4 3 5 4 3 6 5 4 5 9 16 15 11 8 6 3 4 8 4 0 8 14 13 11 6 5 8 8
11 10 10 10 11 7 4 2 4 4 3 3 5 2 5 7 6 4 4 3 1 2 9 14 7 9 15 16 19 15 9 6 3 4 2 7 8 4 6 14 9 14 10 11
12 11 10 10 10 11 4 3 4 4 2 4 4 6 4 2 5 6 8 9 12 6 5 3 6 4 4 13 20 19 16 8 5 4 5 7 10 6 7 7 8 15 14 12
12 11 10 10 10 13 4 2 4 4 4 6 5 4 8 5 3 4 5 7 5 5 3 3 5 4 4 3 5 16 17 14 9 4 4 7 5 4 2 1 6 3 5 6
14 12 11 11 12 12 4 3 5 4 2 6 6 5 5 5 3 3 3 4 3 7 4 5 4 9 1 7 6 3 8 10 17 7 5 7 7 8 1 2 7 3 0 3
15 15 13 12 13 13 5 1 5 7 3 7 5 6 7 1 4 5 3 5 4 2 4 3 5 6 8 9 6 6 12 9 5 7 4 11 8 2 8 7 3 3 4 4
16 15 14 14 15 14 11 5 3 3 4 5 3 9 13 11 13 4 5 6 3 3 1 4 5 6 3 6 6 4 4 6 7 9 9 5 4 6 4 3 4 6 4 6
14 15 14 15 16 16 13 4 4 2 7 11 11 13 17 14 16 17 12 8 8 5 4 0 3 9 4 9 11 4 3 4 4 4 6 8 7 5 4 2 5 4 6 5
13 13 14 13 13 14 14 4 5 6 2 6 12 9 15 22 18 20 20 20 10 4 4 7 7 6 5 5 6 9 6 12 7 3 5 3 7 5 8 7 3 1 3 1
8 9 10 12 15 18 12 6 8 10 8 5 4 4 5 9 17 23 23 19 16 8 11 7 8 5 8 7 3 5 5 7 6 6 7 6 4 3 3 5 4 5 5 4
8 10 14 15 18 20 6 4 8 12 12 6 7 5 11 13 17 19 19 16 13 10 6 6 7 15 8 5 3 6 5 5 6 5 4 6 4 3 4 4 5 4 5 5
9 8 12 18 21 7 4 3 2 14 10 3 4 6 2 5 12 7 7 17 9 6 7 7 6 4 8 2 4 4 6 8 4 3 3 1 5 6 6 4 3 4 4 5
8 10 16 19 6 2 2 4 4 9 4 3 3 6 3 1 2 2 2 6 4 6 4 3 5 3 3 4 5 5 7 2 1 6 6 5 3 6 5 6 6 7 5 5
10 13 18 1 2 3 3 6 10 2 1 3 3 3 4 3 2 1 2 1 3 3 5 5 5 3 5 5 8 10 8 6 5 4 3 4 2 5 5 6 6 8 6 5
15 1 1 2 3 3 8 2 2 2 2 1 3 0 4 2 2 2 1 1 2 2 1 2 1 4 6 10 12 6 7 6 5 4 2 4 4 5 5 5 4 5 8 6
2 1 2 2 4 3 2 2 2 2 3 3 3 3 2 1 2 2 2 1 2 2 2 3 2 4 5 4 6 6 8 7 8 6 5 6 5 6 6 5 5 6 7 6
2 3 2 2 3 3 2 2 1 4 4 2 2 2 3 2 1 2 1 2 1 3 2 1 3 5 4 7 6 6 6 8 7 5 5 5 4 7 7 6 6 5 6 7
2 1 2 3 2 5 3 2 3 2 1 3 2 1 1 2 1 1 1 4 3 2 1 4 5 3 4 5 3 5 9 9 7 7 6 7 7 7 5 7 4 7 7 6
0 1 4 5 3 4 4 3 3 4 2 3 2 3 3 2 2 2 3 4 2 3 5 6 2 1 3 2 3 8 6 7 7 6 6 7 9 7 7 6 4 7 6 6
3 4 5 5 3 2 3 3 3 3 4 4 3 3 4 4 1 3 2 1 4 5 5 4 2 6 4 3 4 6 5 4 5 3 5 7 7 8 7 5 6 6 6 6
2 4 3 2 1 3 2 2 3 3 2 2 2 3 3 3 3 3 5 3 5 5 3 3 3 3 3 4 5 4 5 6 5 5 5 6 6 7 6 4 7 5 4 5
3 3 1 1 2 4 3 2 3 2 2 2 2 4 5 2 1 3 4 6 4 3 2 2 2 4 5 5 6 5 8 6 6 6 6 6 6 6 4 8 4 6 4 4
Wind_Direction
154 147 145 130 121 110 54 88 68 304 316 140 138 166 175 291 312 357 335 23 84 322 352 336 271 269 26 343 329 52 13 97 281 270 274 255 246 244 165 232 251 239 249 255
153 146 138 117 121 82 113 84 101 328 356 182 183 125 272 208 221 281 81 355 47 269 238 312 244 273 119 352 65 98 336 31 322 322 348 7 11 11 14 340 122 248 269 255
158 147 137 132 117 97 82 90 85 348 39 58 119 92 270 218 212 225 270 237 135 336 294 240 271 253 233 168 105 132 143 159 221 269 281 285 310 324 332 46 277 276 248 267
155 154 147 145 139 111 88 48 233 214 177 239 151 174 340 100 186 230 185 290 201 171 246 219 237 268 271 219 201 135 194 221 213 230 235 238 248 255 283 286 265 263 317 284
163 161 163 157 143 112 78 126 126 78 143 85 168 202 238 188 189 197 274 236 93 231 243 248 304 332 304 309 283 171 181 254 195 263 225 228 253 250 253 254 265 237 297 323
176 179 176 172 163 99 102 253 39 102 293 137 162 212 200 188 168 262 236 257 348 276 277 319 291 287 281 264 272 248 198 216 203 252 178 164 271 244 226 233 210 218 233 210
185 190 188 182 182 118 120 170 103 89 238 172 200 183 175 213 231 251 301 37 152 254 335 319 279 273 250 248 247 234 220 204 208 265 177 237 241 205 201 224 235 217 258 259
191 196 189 187 197 159 104 147 113 123 213 228 227 234 217 261 254 265 263 263 253 282 290 301 315 294 227 234 236 229 212 207 230 229 216 299 297 253 182 195 262 231 231 270
193 196 193 195 202 179 116 163 134 115 114 242 202 195 216 221 212 324 247 257 222 156 177 121 214 235 297 265 259 214 209 206 215 165 206 221 233 283 177 213 286 221 180 244
193 197 202 206 209 208 148 181 144 103 204 222 154 187 183 164 158 205 292 285 272 144 186 224 206 246 262 270 237 202 204 203 214 198 210 275 236 241 106 131 245 209 267 294
196 200 204 212 220 223 158 192 172 194 226 244 213 215 214 144 162 185 238 16 302 13 215 212 221 240 223 229 230 211 198 176 204 208 213 256 206 130 179 214 306 316 308 265
205 207 207 216 226 228 204 220 170 145 226 255 230 234 231 217 222 194 200 200 208 201 350 13 347 309 250 208 235 209 228 202 181 183 206 226 242 203 201 143 237 275 257 258
211 211 219 233 236 234 217 192 139 167 243 259 241 232 225 218 215 213 237 229 212 221 141 282 264 252 307 219 227 167 228 146 216 112 221 228 240 281 278 222 224 265 271 287
206 212 230 237 241 239 233 210 174 193 252 261 263 209 230 229 224 216 213 228 229 207 193 228 238 255 306 280 271 209 183 160 178 278 278 335 291 252 257 262 259 224 77 354
203 221 240 250 252 249 244 224 209 200 208 265 260 295 216 199 207 216 220 223 225 220 223 226 244 231 239 233 270 244 191 172 164 206 200 160 210 184 222 240 260 268 157 131
235 251 256 261 267 264 264 248 210 210 201 240 260 256 250 218 195 203 206 211 209 211 205 224 227 241 254 214 228 258 251 215 167 186 183 176 156 218 206 211 242 241 190 152
254 272 284 283 279 250 200 215 299 192 170 229 255 262 231 241 246 219 214 199 185 189 201 221 252 269 204 207 224 256 213 222 200 180 148 223 172 215 185 178 112 91 78 104
265 298 290 281 218 337 273 279 300 168 138 206 253 269 306 204 225 174 159 125 140 161 173 198 207 210 230 240 238 254 231 183 224 233 204 199 182 149 131 114 123 115 130 122
306 283 275 197 159 192 247 169 123 53 203 208 210 250 277 336 332 54 70 97 153 144 193 208 159 187 223 216 204 219 214 184 182 126 108 100 162 125 124 124 151 135 151 142
281 259 119 271 208 145 127 59 128 206 230 298 244 333 271 9 333 348 27 125 139 145 240 40 100 258 245 227 221 216 231 225 160 139 154 151 158 170 169 192 148 140 150 137
32 337 228 265 332 80 62 158 154 191 269 207 221 187 238 307 51 289 356 81 22 83 256 153 268 265 247 312 292 246 217 200 206 202 176 145 154 184 163 145 139 133 134 147
227 293 312 351 46 43 104 231 275 199 234 233 228 211 172 284 74 75 288 116 136 190 193 111 288 258 302 336 336 334 202 178 178 165 143 150 181 139 133 128 129 128 124 125
33 78 289 56 317 30 138 263 298 318 233 220 164 318 281 30 249 282 353 70 218 99 56 235 232 279 351 307 340 36 50 75 80 74 84 106 105 76 92 112 102 120 109 106
123 168 298 158 273 224 194 191 223 260 241 212 189 159 181 216 211 199 165 228 173 224 221 234 235 178 195 183 65 77 59 68 79 79 84 88 89 79 65 78 101 112 106 111
209 192 224 211 230 267 220 203 229 231 225 204 200 193 166 188 151 190 189 288 224 218 225 230 203 190 148 93 81 99 91 82 76 64 91 85 86 89 80 48 80 93 98 109
236 225 245 206 152 266 285 219 232 210 208 193 218 158 168 202 162 159 219 170 231 254 222 246 176 135 123 114 102 96 103 96 95 82 84 87 86 100 109 79 75 67 91 113
229 254 203 151 203 235 249 209 243 251 264 203 156 131 193 106 127 245 180 204 220 218 275 292 174 156 151 130 122 135 117 110 107 104 96 104 118 124 112 91 90 92 88 100